Weather in Berestechko

Ukraine / Volyn Oblast     50°21′25″N   25°06′43″E
temp.,
°C
wind,
m/s
gust,
m/s
humid.,
%
clouds,
%
prec.,
mm/h
press.,
hPa
HPBL,
m
21 april, wed
wed2100:00+6n118512 0.0 101210
03:00+5w228915 0.0 101313
06:00+4w339259 0.0 101248
09:00+8w468099 0.0 1013317
12:00+12w356482 0.3 1013743
15:00+15w574595 1.1 10112420
18:00+13w476367 1.4 10111124
21:00+8sw3785100 2.6 1013111
22 april, thu
thu2200:00+9sw5138788 1.1 1013445
03:00+7sw412925 1.2 1013298
06:00+6sw4109461 0.0 1013218
09:00+10sw5108379 0.0 1014473
12:00+9wsw51090100 1.3 1014752
15:00+11sw577477 3.6 10141010
18:00+9nw3587100 2.3 1015451
21:00+5w3790100 6.2 1017557
23 april, fri
fri2300:00+4wsw3895100 0.0 1017209
03:00+3wsw379496 0.0 1018234
06:00+1w399028 0.0 1018251
09:00+4w59775 0.0 1019626
12:00+7wnw6855100 0.1 10191973
15:00+8wnw7853100 0.9 10181883
18:00+8wnw575550 0.5 10181511
21:00+4w487898 0.6 1018222
24 april, sat
sat2400:00+2w612907 0.3 1019587
03:00+2wnw7128288 0.4 10191000
06:000wnw612885 0.0 1021541
09:00+3wnw610665 0.0 10221118
12:00+6wnw7950100 0.4 10212272
15:00+7wnw81144100 0.5 10212659
18:00+7wnw7105161 0.1 10202080
21:00+3w377023 0.2 1022130
25 april, sun
sun2500:00+2wnw3474100 0.0 102183
03:00+2wsw498387 0.0 1022399
06:00+2w489452 0.3 1021432
09:00+3nw69665 0.3 1022880
12:00+5wnw7956100 0.1 10231938
15:00+7wnw7948100 0.3 10222400
18:00+6nw7105777 0.6 10211667
21:00+2w387891 0.9 1022183